Other Surface Observations
Issued by NWS Jacksonville, FL

Home | Current Version | Previous Version | Text Only | Print | Product List | Glossary On
Versions: 1 2 3 4 5 6 7 8 9 10 11 12 13 14 15 16 17 18 19 20 21 22 23 24 25 26 27 28 29 30 31 32 33 34 35 36 37 38 39 40 41 42 43 44 45 46 47 48 49 50
000
SXUS52 KJAX 021710
OSOJAX
OTHER SURFACE OBSERVATIONS
NATIONAL WEATHER SERVICE JACKSONVILLE FL
100 PM EDT TUE SEP 02 2014

FLZ020>025-030>033-035>038-040-021800-
...FLORIDA...

CITY           SKY/WX    TMP DP  RH WIND       PRES   REMARKS
CECIL FIELD    PTSUNNY   90  73  58 VRB3      30.09F
HERLONG FIELD  NOT AVBL
FERNANDINA BCH NOT AVBL
LAKE CITY      CLOUDY    88  73  62 CALM      30.09F
JUNIPER SPGS   NOT AVBL
BUNNELL        SUNNY     88  72  58 CALM      30.10F
KEYSTONE HGTS    N/A    N/A N/A N/A MISG        N/A
$$

GAZ132>136-149>154-162>166-021800-
...GEORGIA...

CITY           SKY/WX    TMP DP  RH WIND       PRES   REMARKS
JESUP            N/A     95  77  55 W3        30.07F HX 109
HOMERVILLE     FAIR      91  75  59 CALM      30.09F HX 102
SWAINSBORO     FAIR      91  73  55 W6        30.08F HX 100
CORDELE        NOT AVBL
$$

PLEASE NOTE:  THESE OBSERVATIONS ARE NOT QUALITY CONTROLLED AND MAY
NOT BE AVAILABLE AT ALL TIMES.
$$


USA.gov is the U.S. government's official web portal to all federal, state and local government web resources and services.